Location: Lawrence Hall of Science
(37.8785°N, 122.2415°W)
Time: 20:47:06
(UTC-07:00)

ARGOS - Visible Passes

Search period start: 26 May 2015 00:00
Search period end: 05 June 2015 00:00
Orbit: 821 x 835 km, 98.7° (Epoch: 26 May)

Date Brightness Start Highest point End Pass type
(mag) Time Alt. Az. Time Alt. Az. Time Alt. Az.
26 May 4.1 21:52:24 21° ESE 21:54:56 32° ENE 21:59:45 10° N visible
26 May 4.4 23:33:54 27° WSW 23:35:11 30° W 23:39:53 10° NW visible
27 May 4.6 21:33:37 14° ESE 21:36:35 23° ENE 21:40:47 10° NNE visible
27 May 3.9 23:15:08 37° SW 23:16:34 45° W 23:21:46 10° NNW visible
28 May 5.0 21:15:19 10° E 21:18:17 16° ENE 21:21:30 10° NNE visible
28 May 3.3 22:56:22 44° SSW 22:58:02 68° WSW 23:03:27 10° NNW visible
29 May 5.3 20:59:22 10° ENE 21:00:02 10° ENE 21:01:03 10° NE visible
29 May 3.1 22:37:36 42° SSE 22:39:33 83° ENE 22:45:00 10° NNW visible
30 May 5.6 00:19:07 10° WSW 00:20:34 11° W 00:21:42 10° WNW visible
30 May 3.4 22:18:50 33° SE 22:21:06 56° ENE 22:26:25 10° N visible
31 May 5.2 00:00:21 16° WSW 00:01:47 17° W 00:05:08 10° NW visible
31 May 3.9 22:00:04 23° ESE 22:02:42 38° ENE 22:07:42 10° N visible
31 May 4.7 23:41:35 23° WSW 23:43:04 26° W 23:47:28 10° NW visible
01 Jun 4.4 21:41:18 16° ESE 21:44:20 26° ENE 21:48:49 10° NNE visible
01 Jun 4.2 23:22:49 31° SW 23:24:26 38° W 23:29:26 10° NNW visible
02 Jun 4.8 21:22:32 10° ESE 21:26:01 18° ENE 21:29:41 10° NNE visible
02 Jun 3.5 23:04:04 39° SSW 23:05:51 57° W 23:11:12 10° NNW visible
03 Jun 5.2 21:05:44 10° E 21:07:44 12° ENE 21:10:02 10° NE visible
03 Jun 3.1 22:45:18 40° S 22:47:21 84° WSW 22:52:48 10° NNW visible
04 Jun 3.2 22:26:33 34° SE 22:28:53 66° ENE 22:34:16 10° N visible
